Wind_Speed
12 11 11 13 14 15 15 14 13 13 11 7 7 10 10 11 10 9 10 9 8 6 5 6 5 4 4 6 7 7 6 7 9 8 9 10 9 7 6 5 5 5 5 4 3 2 1 1 2 3 2 1 2 3 3 4 4 4 5 6 7 7 8 9 9 9 10 10 11 11 11 11 12 12 11 10 10 10 10 11 10 10 10 11 11 12
12 12 11 13 15 17 18 16 14 13 11 7 9 13 12 11 13 12 12 11 10 8 7 6 6 4 3 4 6 6 6 8 10 9 10 11 11 9 8 6 5 6 6 5 4 3 3 2 2 3 2 2 2 3 4 4 4 4 5 6 6 6 6 7 7 8 8 9 9 9 10 9 10 11 11 10 9 9 10 10 10 9 9 10 10 11
10 13 13 14 16 19 19 19 15 10 11 11 12 15 14 12 13 14 12 11 11 10 8 8 8 7 6 5 5 5 7 9 10 10 9 10 10 10 10 8 7 6 7 6 5 5 4 3 2 3 3 2 3 3 4 4 5 5 5 6 6 5 5 5 6 6 7 8 7 8 8 8 8 9 10 10 9 8 9 9 9 9 9 9 9 10
6 11 13 12 12 15 16 15 12 11 13 12 10 12 12 11 13 13 12 11 12 11 9 10 10 9 8 7 7 7 7 7 9 10 8 7 8 10 11 10 8 7 7 8 6 6 5 4 3 2 3 3 3 3 4 5 5 5 6 6 6 6 6 5 5 5 6 7 7 7 7 7 8 8 9 10 9 8 9 9 9 9 9 9 9 9
6 7 9 9 9 10 10 9 10 15 15 8 4 6 7 8 12 13 13 13 14 13 11 11 11 11 9 7 7 7 5 4 6 9 8 7 7 9 11 11 9 8 8 8 8 7 6 4 4 3 3 3 3 3 4 5 5 6 6 7 7 6 6 6 6 6 6 7 7 6 6 7 8 9 10 10 9 9 10 9 9 9 9 9 9 8
7 6 6 8 5 3 5 8 11 14 14 10 7 9 12 12 12 12 13 14 16 15 14 12 10 10 9 8 8 9 8 7 6 9 10 9 7 6 9 12 12 10 8 8 8 8 7 5 5 5 4 4 4 4 4 5 6 6 6 7 7 7 7 6 6 6 6 7 7 6 6 7 8 9 10 10 10 10 10 10 10 10 9 9 9 8
2 1 1 1 3 3 3 7 9 10 11 14 14 15 16 15 14 13 14 16 17 17 15 11 9 9 10 10 9 10 11 11 9 10 12 11 9 7 8 13 15 12 10 9 8 8 8 7 6 6 6 6 5 5 5 5 6 6 6 6 7 7 7 7 6 6 6 7 7 7 7 7 7 8 10 10 11 10 10 9 9 9 9 9 8 8
2 2 3 5 5 4 5 5 8 10 12 17 21 20 15 11 11 13 15 16 18 19 16 11 9 10 11 11 10 10 11 11 10 12 12 13 12 9 9 13 16 15 13 11 9 9 10 9 7 7 7 7 6 6 6 6 6 6 6 6 7 8 8 7 7 7 7 6 7 7 8 8 8 8 9 10 10 10 9 9 9 9 9 9 8 8
2 1 1 1 3 2 4 5 8 12 18 21 23 19 13 10 10 14 17 18 17 16 14 13 13 14 14 13 11 9 10 11 11 12 12 12 13 12 11 13 16 16 15 13 11 11 12 11 10 9 8 7 6 7 7 6 7 7 7 7 7 8 8 8 8 8 7 6 6 7 8 9 9 9 8 9 9 9 9 9 9 9 9 9 8 8
1 2 1 2 5 6 2 2 3 11 19 22 20 15 14 12 12 15 18 20 19 14 11 12 14 15 16 16 14 12 11 12 12 12 12 12 14 14 13 13 16 17 17 16 12 11 12 12 11 10 8 7 7 7 7 7 7 8 8 8 7 8 9 9 8 8 7 6 6 6 7 8 9 9 9 8 8 8 8 8 9 9 9 8 8 8
4 3 3 5 7 10 7 4 2 6 12 18 20 18 17 15 14 16 17 21 22 16 15 16 16 15 17 17 18 18 15 12 12 13 13 13 14 15 15 15 17 18 19 18 15 13 12 13 12 11 9 8 7 7 8 7 8 9 9 9 8 8 9 10 9 9 8 7 7 6 7 8 9 9 9 9 8 8 8 8 8 9 8 8 8 9
6 5 3 4 5 8 7 4 1 7 10 15 20 19 19 18 18 20 21 24 24 19 18 20 19 18 17 17 19 22 20 15 13 14 14 14 15 15 15 16 17 19 20 19 18 16 14 12 12 11 10 9 7 7 8 8 8 9 10 9 9 9 9 10 10 10 9 9 8 7 7 8 9 9 9 9 9 9 9 9 9 9 8 9 9 9
7 8 4 2 4 8 7 8 3 6 10 13 16 17 18 20 21 22 26 28 27 22 18 17 17 17 18 18 18 21 23 21 17 17 17 17 17 16 16 16 17 20 21 20 20 19 16 13 12 12 12 11 9 8 9 8 8 10 11 11 10 10 10 10 11 11 10 10 9 8 8 8 9 9 9 10 10 10 9 9 9 9 9 9 9 9
5 7 5 3 8 10 10 12 9 6 7 10 14 15 16 17 17 18 22 24 24 20 16 17 18 17 17 17 17 20 24 25 22 20 20 19 19 19 18 17 17 19 22 22 21 21 19 16 15 15 14 12 11 9 10 9 8 10 11 12 11 10 10 11 11 11 12 11 11 10 9 9 9 9 9 10 10 10 10 10 10 9 9 9 9 9
4 1 3 7 9 10 13 12 9 8 9 11 15 14 13 14 13 13 17 19 19 18 16 16 17 17 16 16 17 19 23 26 24 22 22 21 21 22 21 19 17 17 21 24 22 21 21 19 17 16 14 13 12 10 10 10 9 10 12 13 12 11 11 11 11 12 13 13 12 11 10 10 10 10 9 10 10 10 10 10 9 9 9 9 9 9
8 6 4 4 3 8 12 14 12 9 8 11 14 13 12 14 12 10 13 17 18 17 16 16 16 16 14 14 16 16 20 25 25 23 23 22 22 23 22 21 19 17 21 25 24 22 22 21 19 18 15 15 14 12 11 12 11 11 13 13 13 12 11 11 11 12 13 13 13 12 11 11 10 10 10 10 10 10 10 10 9 8 8 8 8 8
9 6 2 2 5 8 11 14 14 12 10 13 15 15 15 14 12 10 12 16 19 19 19 18 18 18 15 14 16 15 17 21 24 24 22 21 21 22 22 22 21 18 19 25 26 24 23 22 21 19 17 16 15 14 13 14 13 12 13 14 14 14 13 12 12 12 13 13 13 13 13 12 11 10 10 10 10 10 10 9 9 8 8 7 7 7
9 7 6 7 6 6 8 11 14 16 15 13 14 18 19 18 15 13 13 16 19 21 22 23 21 20 18 15 15 14 15 19 23 24 22 19 19 19 21 21 20 18 19 23 28 26 24 24 24 21 19 18 17 16 16 16 15 14 14 15 15 15 15 14 13 13 13 13 13 14 14 13 12 12 11 11 10 10 10 10 9 8 8 8 7 7
12 12 12 12 8 7 9 11 14 18 16 9 10 15 18 20 20 19 17 17 19 21 24 26 25 23 21 19 16 14 14 18 22 23 22 20 19 19 20 19 18 18 18 22 27 27 26 27 26 23 20 19 19 18 17 18 17 15 14 15 16 16 16 15 14 13 13 14 14 14 13 13 13 12 12 12 11 10 10 10 9 9 9 8 8 8
14 15 16 15 13 13 13 13 14 18 17 10 8 9 11 16 18 19 20 19 20 20 23 25 26 25 23 21 17 14 14 16 19 21 22 21 21 22 22 20 18 18 18 20 24 27 28 29 28 25 22 21 20 20 19 19 18 17 15 15 16 17 17 16 15 15 14 14 14 14 14 13 13 13 13 12 11 11 10 10 10 10 9 9 9 9
13 13 15 17 18 17 16 15 17 19 19 15 12 9 10 13 14 15 16 17 18 19 20 23 25 26 25 21 18 16 15 14 16 18 20 21 22 23 23 22 21 21 20 20 21 25 29 31 30 28 25 23 22 21 21 20 20 19 17 16 17 18 18 18 18 17 16 16 15 15 15 14 14 13 13 13 12 11 11 10 10 10 10 10 10 9
8 9 13 19 21 20 18 20 20 21 21 18 13 11 11 14 14 14 14 14 16 19 20 21 22 23 24 22 20 19 17 15 15 16 18 19 20 23 23 22 22 22 22 22 22 24 27 31 31 30 27 25 24 22 21 21 22 20 18 17 17 18 19 19 20 19 19 18 17 16 16 15 15 14 14 13 13 12 12 11 11 11 10 10 10 10
9 8 12 17 21 21 22 24 23 22 22 18 12 11 13 14 14 14 13 13 15 17 20 21 19 19 20 22 22 21 19 17 16 17 17 18 18 21 24 24 23 23 23 24 23 23 26 30 31 30 29 28 26 24 22 21 22 22 20 19 18 19 20 20 21 21 20 19 18 18 17 16 16 15 15 14 14 13 13 12 11 11 11 10 10 10
14 12 12 14 19 22 25 27 26 24 23 18 14 15 17 16 14 13 12 13 14 15 17 19 17 15 16 21 23 22 20 18 17 17 19 19 18 19 22 24 25 24 25 24 22 23 26 30 32 31 29 29 29 27 24 22 22 23 22 20 20 20 21 21 22 23 22 21 20 19 19 18 17 17 16 16 15 14 14 13 12 11 11 10 10 10
17 17 15 15 16 20 26 28 27 25 24 22 19 19 21 18 14 12 12 13 14 15 16 17 16 14 16 19 21 21 21 20 18 18 19 19 19 20 22 24 24 25 26 25 24 24 24 27 34 34 31 31 31 29 27 24 23 24 23 22 22 22 22 22 22 23 23 23 22 21 20 20 19 19 18 18 17 16 15 14 13 13 12 12 11 11
17 16 16 16 15 17 24 29 29 27 27 26 23 21 23 20 16 14 14 13 14 15 16 16 16 16 17 17 18 20 21 21 19 18 19 20 19 21 23 24 23 23 25 26 28 27 24 25 31 35 33 33 34 32 29 27 25 25 25 25 24 24 24 24 24 24 24 23 23 22 22 21 20 20 20 20 19 18 17 16 15 14 13 13 13 13
19 18 18 17 16 17 21 27 31 31 30 30 27 24 24 23 20 17 16 15 16 16 15 16 16 16 17 17 17 19 20 21 19 18 20 21 20 20 24 26 25 22 22 24 26 28 26 25 29 33 35 35 36 35 33 30 28 26 26 26 26 26 26 25 25 25 25 24 23 23 23 22 22 22 22 21 20 19 18 17 16 16 15 15 15 15
22 22 20 17 16 18 20 24 28 30 31 31 28 25 25 24 21 19 16 16 17 16 15 16 16 16 17 17 17 18 19 19 19 17 18 21 21 21 22 26 26 24 22 22 23 23 24 26 29 32 35 37 36 35 35 33 29 27 27 27 27 27 27 26 26 26 26 25 24 24 24 24 24 23 23 22 21 19 19 18 18 18 18 17 17 17
18 19 19 17 17 20 20 21 22 25 28 27 26 26 26 22 19 18 20 20 18 16 17 17 16 15 16 17 17 17 18 19 19 17 16 17 20 20 21 24 25 25 25 24 23 21 21 24 28 31 34 37 37 36 36 34 31 30 28 28 28 28 28 27 26 26 27 27 26 26 26 25 25 24 23 22 21 20 20 20 21 21 21 20 19 19
18 18 18 17 18 20 20 19 21 24 27 26 25 25 22 19 17 18 23 25 21 19 20 19 17 16 16 17 17 17 18 18 18 17 17 17 19 19 20 23 23 23 25 26 25 23 20 21 25 29 33 36 36 35 35 33 32 32 31 30 29 29 29 28 27 27 27 28 28 28 28 27 26 25 23 22 22 22 22 23 23 24 23 22 21 21
22 21 19 17 17 20 20 20 22 24 26 25 24 22 19 18 20 22 25 27 24 21 20 19 18 17 16 17 17 18 18 18 18 18 18 19 21 20 19 21 22 21 22 23 24 24 23 21 22 25 28 32 34 34 34 33 33 33 34 32 30 31 32 30 28 28 28 28 28 28 28 27 26 25 25 25 25 25 25 25 24 24 23 22 21 21
23 22 20 18 17 18 19 20 20 23 25 23 22 22 20 19 21 23 25 26 23 18 17 16 16 15 15 15 16 18 19 19 18 18 18 19 21 21 18 18 20 20 19 20 21 23 24 24 23 23 24 28 31 32 34 35 33 32 33 34 32 31 33 32 30 29 28 28 28 28 28 28 28 28 27 28 28 27 26 26 24 23 22 21 21 21
25 23 21 19 18 17 17 18 18 20 21 22 22 22 20 18 20 22 23 25 21 15 11 11 12 13 13 14 16 18 19 18 18 18 18 18 20 21 18 16 17 17 17 18 19 20 22 23 24 25 26 27 29 31 35 37 35 32 33 35 35 34 34 33 31 30 30 30 30 30 30 30 30 31 32 31 29 28 27 26 24 23 22 22 23 22
23 22 21 19 18 17 15 15 16 16 18 21 23 23 22 22 21 21 23 25 22 16 12 13 13 13 13 14 16 19 19 18 17 18 19 19 19 20 19 17 17 17 17 18 19 19 19 21 23 25 26 28 29 30 33 37 37 35 34 35 37 38 37 36 33 31 32 32 32 33 33 33 33 33 33 32 31 29 28 26 25 24 23 23 23 23
19 20 20 19 17 15 14 13 13 14 16 20 23 25 26 26 25 24 25 26 23 21 21 20 16 13 13 14 16 18 18 18 17 18 19 19 19 20 19 18 19 19 19 19 21 21 19 20 22 24 25 26 28 29 30 33 36 37 37 36 37 39 39 37 35 34 34 33 34 36 36 35 36 34 33 33 33 32 31 28 27 26 25 24 25 26
18 19 20 19 17 16 15 14 14 14 16 19 23 27 29 29 27 25 24 25 25 25 25 23 18 15 14 15 15 16 16 17 17 19 20 20 19 19 19 19 20 19 17 16 19 22 21 19 20 23 25 26 27 29 30 31 34 37 38 37 37 37 39 40 39 38 37 36 35 36 36 37 37 35 34 35 36 35 33 31 28 26 25 26 27 27
19 19 20 20 20 20 19 17 16 15 17 19 23 27 30 30 29 27 26 25 25 24 23 22 20 18 17 15 15 15 15 16 17 19 21 21 21 20 20 20 21 21 18 16 16 18 20 21 21 23 26 27 29 30 31 32 34 36 38 38 38 37 37 40 42 40 39 38 37 36 37 37 36 36 36 36 36 36 35 33 30 28 26 26 27 28
22 22 22 23 24 24 22 19 17 15 17 20 23 26 28 29 29 27 25 23 21 20 20 21 20 18 16 15 14 14 14 14 16 20 22 22 22 22 22 21 22 23 23 21 18 15 15 18 20 23 27 29 30 31 33 33 33 33 34 36 39 39 38 39 41 41 41 41 40 39 39 39 37 36 37 38 37 36 36 35 34 30 27 27 29 30
26 26 24 23 25 27 25 20 18 17 17 20 23 24 26 28 28 25 21 18 17 16 17 18 17 15 15 14 14 15 14 14 16 19 21 22 23 24 24 23 23 24 24 24 22 18 16 16 19 23 27 30 31 33 33 35 35 34 32 32 36 40 41 41 42 44 45 44 43 42 43 43 41 39 39 40 39 38 37 36 35 33 31 30 32 32
31 30 26 24 27 30 28 23 20 19 19 21 22 22 24 25 24 22 19 17 15 14 15 15 14 14 14 14 14 15 15 15 16 18 20 21 23 25 25 24 23 23 24 25 25 24 22 20 22 24 26 29 32 33 32 33 36 35 32 31 34 37 40 43 45 46 45 45 44 45 46 45 43 43 43 42 42 39 36 36 37 37 35 33 33 33
35 34 31 29 30 32 30 26 21 19 19 19 19 20 21 21 20 18 18 17 15 15 15 15 15 15 14 13 13 13 14 14 15 16 18 20 22 25 26 25 24 23 23 23 24 25 24 24 25 26 26 28 30 30 30 34 40 41 37 33 36 40 42 44 46 46 45 45 46 48 48 47 46 46 45 45 45 42 38 38 40 39 36 35 35 35
37 37 36 34 34 33 32 28 23 21 20 19 18 20 21 21 20 19 17 17 16 16 17 16 16 15 13 12 12 12 13 13 13 14 15 18 20 23 25 25 24 23 22 22 23 24 24 24 25 26 26 26 26 27 27 25 26 34 37 33 36 44 47 46 48 47 47 48 48 48 49 49 48 47 47 47 47 43 40 40 40 36 34 36 37 36
38 38 38 36 34 34 33 30 25 24 24 21 20 21 20 20 19 17 15 15 16 17 17 17 16 14 13 13 12 12 12 13 13 12 13 15 18 21 23 23 22 22 22 21 22 23 23 23 25 25 25 23 22 25 25 16 8 13 20 21 24 32 36 37 40 44 46 48 49 48 49 51 51 48 47 47 45 43 42 42 40 37 36 36 35 35
37 37 37 36 34 34 34 32 28 26 26 23 20 19 17 16 16 14 14 16 16 15 15 16 15 13 13 14 13 12 12 12 12 12 11 12 15 18 21 21 22 23 24 22 20 20 20 21 23 24 23 21 20 22 25 25 21 19 18 17 16 19 22 24 29 38 45 48 47 46 47 48 47 46 45 44 44 42 40 38 38 37 35 34 33 33
36 35 36 36 35 35 34 33 31 28 27 25 21 17 14 12 12 12 13 15 16 15 15 16 15 14 14 14 13 12 12 11 11 11 11 12 13 16 19 21 22 24 26 25 21 19 19 20 22 22 21 19 18 17 19 22 24 24 24 24 21 20 20 20 21 26 34 38 40 41 42 43 43 43 40 38 37 36 34 34 35 34 33 33 33 33
36 35 34 34 35 34 33 33 30 28 28 26 22 19 15 13 13 12 12 14 15 15 16 17 16 14 14 14 13 12 12 12 11 10 11 12 14 16 18 20 22 24 25 25 23 21 21 21 21 20 19 17 15 14 13 15 17 17 20 24 26 23 20 20 20 22 25 28 29 32 34 36 38 38 36 34 35 35 34 34 33 32 32 32 33 33
36 35 34 33 32 31 31 31 30 29 28 27 23 20 16 15 14 14 14 15 15 15 15 16 15 14 14 14 13 12 12 13 12 10 10 11 14 16 17 19 22 25 25 25 24 23 23 22 20 19 19 17 14 11 10 12 14 14 12 15 18 17 16 15 16 18 20 21 22 25 28 29 30 32 35 36 37 38 37 36 34 34 33 32 32 33
36 34 34 33 32 31 32 33 32 30 29 26 22 18 16 15 16 16 15 16 16 15 15 15 16 16 16 15 14 14 14 14 13 11 10 11 14 16 18 18 20 23 25 25 25 24 24 22 20 19 18 17 14 11 9 10 12 13 13 14 15 16 17 18 17 16 15 16 19 24 27 28 28 30 32 32 32 33 35 36 37 37 36 35 34 35
35 34 34 33 32 33 33 32 30 28 27 25 21 18 17 18 18 16 14 15 17 16 15 16 17 17 17 16 16 15 15 15 14 12 12 13 14 15 17 19 20 21 23 24 24 24 24 23 21 19 18 17 14 12 11 11 11 12 12 14 15 14 14 17 20 21 21 20 22 24 24 24 25 26 28 29 30 31 32 34 35 37 37 37 37 38
34 35 36 33 32 32 31 28 25 24 24 24 22 20 19 19 18 16 14 14 16 16 15 15 15 16 15 15 15 15 14 14 14 14 14 15 14 14 16 18 20 21 22 23 24 24 24 23 22 21 19 18 16 12 10 11 13 14 13 11 9 7 5 6 10 16 20 22 24 25 24 24 25 26 26 27 26 27 28 30 32 33 34 35 35 36
32 35 35 33 30 28 27 25 24 23 24 25 23 20 19 19 18 17 16 14 14 15 15 14 14 14 14 14 15 14 14 14 14 15 16 16 16 16 16 17 20 21 22 23 24 24 23 23 23 21 20 20 17 13 12 14 16 16 13 8 5 4 3 3 5 9 12 13 15 16 17 17 18 19 20 20 19 20 21 23 24 25 26 26 25 25
Wind_Direction
139 149 173 182 178 176 188 203 203 197 191 188 202 198 192 196 205 215 210 210 210 203 208 207 211 233 244 239 239 245 249 249 252 254 247 232 226 228 219 218 217 210 217 198 183 226 245 164 143 129 123 137 142 143 139 139 132 130 130 122 118 117 116 117 118 119 122 126 131 137 145 152 153 154 154 153 148 141 134 129 127 124 119 116 113 112
141 143 168 175 177 182 189 198 201 201 190 180 215 209 193 197 206 216 217 212 213 209 213 221 220 233 255 250 241 247 249 243 245 249 249 240 229 229 227 219 215 210 214 211 206 229 251 243 177 144 149 159 160 167 165 164 156 150 146 134 128 124 121 120 119 122 125 127 134 139 148 157 160 160 158 157 154 145 138 133 131 128 126 122 118 116
158 152 172 181 188 194 198 206 205 205 204 197 216 216 203 209 211 214 220 217 217 215 216 222 224 227 232 238 242 259 265 250 245 244 245 242 229 226 228 222 216 209 209 215 218 230 241 247 218 162 165 177 169 177 181 181 176 166 157 145 138 133 130 127 124 128 130 132 136 137 143 155 163 164 160 157 156 151 143 137 136 135 133 130 124 121
183 169 177 184 198 204 211 221 205 200 218 214 224 227 219 229 229 223 227 228 227 222 218 220 224 228 229 235 246 264 270 248 241 241 239 239 229 225 228 225 220 212 210 215 221 233 236 235 239 207 188 195 184 185 186 188 190 180 165 151 144 141 138 139 137 137 136 133 134 136 143 150 157 166 164 157 157 157 150 144 143 143 143 140 134 129
177 187 181 173 188 202 211 222 196 198 215 218 222 220 208 228 234 232 234 235 236 231 223 219 222 231 233 234 241 245 240 222 235 240 233 231 225 224 228 228 228 221 216 218 219 233 238 237 247 244 223 214 204 201 194 190 195 193 178 158 150 146 142 144 144 142 138 131 133 142 150 153 155 166 168 160 160 162 155 150 150 150 150 147 141 137
176 192 186 170 179 203 199 205 198 199 203 188 179 190 191 203 217 227 234 238 241 239 231 221 221 233 237 237 235 231 228 232 246 240 228 225 218 216 224 228 232 228 222 222 221 234 242 238 243 247 246 234 218 216 209 198 197 200 191 168 156 150 144 145 143 140 138 134 136 143 149 153 154 161 164 160 163 164 157 156 156 155 155 150 145 145
205 180 232 274 315 305 237 213 198 188 184 183 193 207 205 205 215 226 234 241 243 242 236 225 225 234 233 234 231 230 236 240 242 234 227 225 217 204 211 224 233 231 223 222 219 229 237 233 234 243 249 246 230 222 222 210 200 202 199 180 164 156 149 146 143 141 144 142 140 142 143 146 149 155 160 160 162 162 160 162 161 159 158 153 152 154
280 348 321 327 327 284 241 207 186 172 165 180 202 217 218 210 222 233 239 244 247 248 243 231 227 227 223 225 221 219 230 232 230 230 227 224 218 206 200 215 230 231 223 222 218 222 233 233 232 240 247 250 239 226 226 219 207 202 203 193 174 162 155 151 147 147 151 149 144 144 143 143 147 152 156 158 159 160 161 165 166 164 163 160 161 163
264 252 279 351 10 312 224 188 181 170 165 180 200 215 225 214 214 231 243 251 257 258 251 236 226 219 213 218 217 214 223 225 227 231 227 224 221 212 200 206 224 229 223 222 219 221 231 234 232 238 244 248 245 235 229 224 215 207 205 201 185 171 163 158 156 155 156 152 146 145 142 141 145 149 152 157 158 159 163 167 168 167 165 164 168 169
44 189 144 79 48 23 340 261 198 177 180 192 199 206 225 229 230 239 249 260 268 276 275 257 239 223 213 217 224 224 226 224 224 226 224 226 225 218 207 204 216 224 222 222 222 222 229 233 233 235 239 244 248 243 235 228 221 215 208 205 195 180 171 166 164 160 158 153 148 144 140 139 143 145 149 153 154 158 163 165 165 163 163 165 170 172
116 152 84 73 55 34 11 337 266 190 191 198 198 198 214 230 246 252 257 264 270 280 290 282 266 241 223 221 226 228 230 228 227 229 226 226 229 224 215 207 211 219 220 219 220 220 224 230 232 233 236 243 247 246 241 232 224 219 212 207 203 192 180 173 170 165 159 152 149 146 141 139 142 145 145 145 148 155 158 157 156 155 156 161 166 169
135 133 81 92 55 27 15 360 180 182 185 193 203 208 213 221 233 239 245 254 262 271 277 275 271 257 239 229 227 227 228 229 229 234 235 233 235 233 226 215 210 215 218 217 216 216 219 225 230 231 232 238 241 242 242 234 224 219 215 209 206 201 190 180 175 170 161 156 154 153 147 141 141 143 142 143 148 151 152 150 147 148 151 155 158 159
151 155 171 150 21 11 2 351 343 201 197 198 208 213 213 219 224 226 234 245 255 263 261 253 255 256 246 236 230 226 225 225 225 230 233 234 237 240 239 229 217 212 215 216 214 215 217 219 223 225 226 230 231 233 238 233 222 219 216 212 208 204 198 189 182 175 167 163 162 159 154 146 144 145 143 143 147 147 146 144 142 145 148 149 148 149
179 166 160 81 15 357 340 332 331 293 248 225 221 217 210 216 221 220 226 237 243 247 243 236 240 247 248 241 230 222 221 221 223 228 230 231 234 238 240 237 229 217 214 216 215 214 216 216 217 219 220 224 226 228 234 231 221 219 216 212 210 205 201 195 189 182 174 170 170 166 161 154 150 150 146 143 144 142 141 141 143 144 142 141 142 145
276 308 59 50 13 336 320 317 321 313 285 254 246 240 221 216 219 215 219 230 238 240 243 245 245 248 251 249 235 222 218 218 220 225 230 232 233 236 238 238 235 225 217 218 216 213 214 215 215 215 213 218 222 224 232 233 222 219 216 212 210 206 202 198 193 189 182 176 175 173 169 165 161 157 153 149 147 144 144 144 145 143 140 140 140 142
289 321 12 47 341 295 300 308 314 316 297 270 263 259 241 230 228 223 221 231 240 244 248 252 254 253 252 255 251 234 221 219 219 221 227 233 235 236 239 240 237 229 220 221 220 215 213 214 214 212 208 211 218 220 228 234 227 219 217 213 210 208 204 200 195 193 189 183 180 179 176 174 170 166 163 160 157 155 153 151 150 149 149 150 148 147
272 294 313 232 248 269 287 299 305 307 301 289 276 265 257 251 248 245 238 240 244 246 251 254 256 255 253 262 266 251 230 223 222 223 225 231 236 237 238 239 236 229 222 221 223 220 215 215 215 212 207 207 213 215 221 230 229 222 218 214 211 209 206 202 198 194 193 190 186 184 181 179 178 175 172 171 170 168 165 163 162 163 163 161 160 159
241 241 242 242 252 273 279 285 296 297 296 291 270 259 259 258 254 250 245 245 247 248 252 256 257 254 249 253 260 251 234 226 225 226 225 225 231 233 233 234 233 232 226 217 220 223 219 216 217 214 208 205 209 212 218 227 229 225 221 216 212 211 208 204 199 194 193 194 192 189 186 184 182 179 178 180 181 179 176 176 174 174 175 173 170 171
222 223 233 239 246 257 262 269 279 281 279 261 241 252 258 256 254 251 247 248 252 252 251 254 258 256 248 241 245 249 239 230 226 228 227 223 221 220 221 225 229 234 231 218 216 221 218 214 215 215 211 207 208 212 220 228 230 226 224 219 213 212 211 206 202 198 195 195 194 192 191 189 185 182 183 185 187 186 185 184 182 182 183 180 176 178
223 223 231 241 250 252 255 261 263 268 273 263 243 243 247 252 254 254 253 253 255 254 251 253 257 258 253 241 240 255 257 243 235 234 234 229 221 216 213 217 221 226 229 222 216 219 219 213 212 215 215 211 209 212 218 227 230 227 224 222 216 213 212 210 207 203 199 198 196 194 192 191 189 187 186 187 188 187 187 186 185 186 187 183 182 184
235 234 235 243 254 256 256 260 259 265 275 278 273 259 245 250 253 254 257 257 256 252 249 251 254 257 258 249 243 257 267 258 249 246 244 239 231 223 217 216 218 217 220 221 217 217 218 215 211 213 216 215 214 213 216 224 230 227 224 223 220 215 214 213 211 207 203 201 200 198 195 192 191 191 190 190 189 189 190 190 189 190 191 188 189 192
241 244 239 244 254 255 252 255 259 266 275 282 286 279 262 255 250 250 257 260 259 255 250 251 253 256 258 254 248 253 258 256 253 252 250 244 237 233 229 225 222 218 215 217 215 211 212 214 215 216 217 218 219 217 216 221 229 230 226 224 223 219 216 216 215 211 208 205 203 203 202 198 196 195 196 196 194 194 196 197 197 199 200 199 197 199
248 246 238 245 256 257 253 254 259 265 273 280 283 282 277 267 257 253 261 266 261 254 250 251 254 255 252 248 246 247 247 246 248 249 247 241 236 236 236 233 231 228 223 218 211 207 210 213 216 220 222 219 219 219 216 218 225 230 228 224 224 223 220 217 217 216 213 210 208 208 207 206 204 202 203 203 201 201 202 204 205 206 208 210 208 206
264 261 248 242 250 252 250 255 261 265 271 274 268 276 284 278 264 255 258 268 267 258 254 252 254 254 247 242 243 243 241 241 245 247 244 238 231 232 235 235 234 236 235 228 216 214 222 221 218 223 228 224 220 219 218 217 223 229 229 226 224 225 224 221 220 219 217 214 213 212 212 212 212 211 210 210 209 207 207 207 209 211 212 214 214 214
274 268 259 248 245 243 242 249 258 262 267 270 267 273 282 280 275 270 263 263 265 263 261 258 255 250 243 240 239 238 237 239 243 246 247 242 233 229 233 234 233 234 237 236 229 226 232 228 220 223 229 227 223 222 220 219 223 228 229 227 225 226 226 224 223 222 221 219 218 216 216 216 217 217 216 216 216 214 213 212 213 214 215 218 221 222
277 269 265 259 248 234 233 241 250 254 259 265 266 268 269 269 274 280 276 268 261 258 258 257 253 247 243 241 236 232 233 237 241 244 248 248 240 232 231 233 234 234 233 234 232 230 232 227 221 221 223 224 224 223 220 219 222 227 230 229 226 226 227 227 226 226 224 223 221 221 220 220 220 221 221 221 220 219 219 219 219 219 221 224 227 228
273 271 273 269 255 238 230 234 243 249 252 256 260 264 264 266 272 276 270 260 256 257 257 255 252 248 245 244 239 234 233 237 242 246 247 248 243 234 230 231 234 236 233 230 229 230 228 226 224 221 218 219 221 222 221 220 222 228 233 234 231 228 228 228 229 229 228 226 224 224 224 224 224 225 225 225 224 223 223 224 226 228 228 230 232 234
272 273 272 265 250 240 234 234 240 246 247 250 255 261 266 273 280 282 274 259 253 257 260 258 256 252 247 245 242 238 238 240 244 248 249 248 246 239 231 230 233 237 238 232 228 228 226 227 230 227 220 218 220 223 224 222 221 226 232 236 237 235 232 230 230 230 230 229 228 227 227 226 227 228 230 230 229 229 229 230 231 233 233 233 234 236
275 275 268 258 248 244 244 245 244 244 247 249 253 259 267 274 279 283 280 271 261 257 259 260 259 255 251 249 245 240 240 242 244 246 250 252 251 243 233 231 233 236 240 238 233 231 228 227 231 232 227 221 219 222 226 225 222 223 226 230 234 235 235 235 234 233 231 230 229 228 228 228 228 230 232 234 235 235 234 233 233 234 233 232 233 234
274 272 264 256 251 250 248 245 239 240 247 251 253 257 263 265 265 268 271 270 266 263 261 259 258 254 250 249 249 245 242 244 245 247 251 255 256 252 238 232 232 235 240 243 239 236 234 230 229 230 230 226 222 222 227 228 226 224 224 226 228 229 232 233 232 233 233 230 228 228 229 229 229 231 232 233 235 236 235 235 234 234 234 232 233 235
278 277 271 264 257 253 251 246 236 235 240 242 243 246 246 249 253 256 262 268 272 269 262 257 256 253 248 247 252 251 248 248 250 251 252 252 254 257 248 237 236 237 239 241 240 237 237 235 231 228 226 225 226 227 228 229 229 226 223 225 226 227 229 231 231 231 232 233 233 233 234 234 233 233 232 232 233 234 234 235 235 236 237 237 236 237
282 283 279 274 264 254 255 257 250 245 241 235 233 237 239 248 257 259 264 273 278 271 260 256 255 252 247 246 250 253 251 249 250 252 252 251 250 253 251 244 245 247 246 245 243 240 239 239 239 235 229 225 227 230 230 231 233 230 225 222 224 226 228 229 232 232 230 230 233 234 234 236 235 234 232 232 233 235 237 238 238 239 241 242 241 239
283 284 283 280 273 263 255 252 254 255 246 230 227 233 236 246 261 268 274 280 281 275 265 265 268 263 254 247 247 252 252 250 248 248 249 249 248 248 246 244 248 253 255 255 252 246 244 244 243 241 237 233 230 230 230 230 232 234 229 223 222 226 229 230 232 231 227 228 232 233 231 232 233 233 233 233 233 235 239 241 241 242 243 244 245 242
278 277 278 279 277 271 264 253 252 255 244 229 228 233 236 239 246 255 265 273 278 281 280 278 277 272 265 256 250 251 253 253 251 247 245 246 248 246 240 236 245 252 254 259 261 257 252 248 245 242 240 239 237 235 231 228 228 231 230 226 224 225 229 232 232 229 227 228 233 235 232 229 230 232 235 236 236 235 235 237 239 239 240 243 245 245
268 270 275 280 278 277 281 273 256 247 241 234 232 233 237 238 238 241 250 259 267 274 277 276 275 272 271 267 260 258 259 260 257 252 247 244 246 248 241 234 240 249 253 258 262 261 258 252 245 242 242 242 241 239 235 231 229 229 229 228 227 226 228 231 233 231 229 229 233 236 236 232 230 230 232 235 236 235 232 232 235 238 239 241 243 245
258 264 272 278 279 281 284 276 260 249 244 240 235 236 240 242 241 242 247 254 260 264 267 271 275 278 279 276 272 269 265 261 257 253 249 245 243 247 245 236 235 242 249 259 263 260 257 255 249 244 244 244 243 240 236 234 232 230 229 228 228 227 227 229 232 233 231 230 232 235 236 236 233 230 230 233 235 235 233 232 234 238 240 242 244 246
257 261 268 276 280 280 277 272 265 256 247 241 236 237 240 243 244 245 245 250 256 259 261 265 271 274 275 273 273 272 269 263 255 248 246 244 241 243 244 239 235 235 241 256 268 263 255 252 250 247 245 245 244 241 238 236 234 231 229 227 226 225 224 225 229 232 233 232 231 232 235 236 234 232 233 234 235 236 236 236 238 241 245 249 252 253
249 254 264 274 277 275 275 279 277 265 252 243 237 237 240 243 246 245 241 241 247 251 255 260 264 268 271 273 274 273 272 269 259 249 243 240 238 239 241 240 238 239 243 252 263 266 257 252 250 247 245 246 246 243 239 237 235 233 230 229 228 226 225 224 227 230 233 234 231 231 234 234 233 235 237 237 237 239 240 241 242 244 247 249 253 254
237 245 255 262 265 269 275 281 279 269 258 250 243 242 244 247 250 252 247 240 240 243 245 252 260 267 272 276 279 279 278 274 265 256 247 240 237 236 236 237 239 242 246 250 254 258 264 267 260 250 246 245 246 246 244 241 238 235 234 233 231 229 228 227 227 226 229 233 233 233 235 234 232 235 239 240 241 243 243 244 244 245 245 244 245 248
234 240 246 250 256 265 273 277 272 263 257 253 249 248 250 253 257 260 256 249 245 246 249 253 258 263 268 274 279 284 285 280 270 262 253 244 238 235 235 234 235 239 244 248 251 255 262 268 267 259 252 248 248 251 252 250 244 237 234 235 233 230 229 230 229 226 227 232 237 238 238 237 235 235 238 240 242 245 248 248 244 242 243 243 244 248
232 237 241 244 249 259 268 270 263 257 256 256 255 256 257 258 260 257 252 249 249 253 256 257 258 259 263 269 276 281 287 287 280 270 258 247 239 236 236 234 231 233 238 242 247 253 257 261 263 261 256 253 256 259 258 257 249 237 232 234 232 227 227 228 229 228 227 232 241 243 242 240 237 236 238 239 241 246 250 246 239 238 243 247 248 251
235 239 242 244 247 255 262 261 256 254 255 257 261 265 264 261 258 253 247 246 247 251 255 258 260 263 265 269 275 284 292 295 292 281 266 254 243 238 237 235 231 230 233 237 242 246 249 253 256 259 257 257 263 264 258 253 241 225 223 230 230 228 228 227 226 227 227 231 240 245 243 240 238 237 238 239 241 244 244 241 238 238 243 247 249 252
239 239 240 243 246 251 255 257 257 258 259 260 265 270 269 267 266 262 254 250 250 252 254 255 256 260 266 272 281 292 298 299 297 288 272 259 248 240 237 236 231 228 229 233 235 237 240 246 251 256 258 257 261 263 255 244 223 212 221 231 232 231 233 231 228 228 229 233 241 245 244 242 240 240 239 239 240 240 239 239 240 241 243 247 251 254
236 233 234 240 245 248 250 254 258 261 263 266 269 270 270 272 273 269 259 254 253 253 253 253 252 257 267 276 284 294 298 298 295 287 274 263 254 245 238 233 228 224 224 226 229 232 236 243 249 254 257 254 253 257 256 256 267 272 263 252 242 238 240 239 236 236 236 237 242 244 243 242 242 241 239 238 238 238 237 238 239 239 242 246 248 251
233 231 231 236 242 245 246 250 253 256 260 264 266 266 267 267 266 261 252 249 249 251 252 254 256 262 270 276 282 289 292 291 289 281 269 261 255 249 241 232 224 222 222 224 229 234 237 243 249 253 255 252 248 247 254 262 269 269 262 256 254 253 250 244 242 241 239 238 240 241 241 241 240 239 237 236 235 235 235 235 234 234 238 241 243 250
235 235 233 234 238 242 243 245 247 251 256 258 260 263 264 263 261 260 258 256 255 255 257 259 262 267 271 274 278 282 282 281 282 278 268 259 253 249 242 231 222 219 221 223 228 233 236 241 247 248 246 247 245 239 243 255 258 253 250 248 247 246 243 238 238 238 233 232 235 237 237 237 236 235 233 233 233 231 231 232 233 236 242 247 251 256
236 237 237 236 236 240 244 243 242 247 252 257 263 266 265 263 262 262 262 261 260 259 261 265 268 269 270 272 273 274 274 274 273 273 268 259 251 247 242 233 223 219 219 221 224 229 231 234 240 243 242 243 243 238 237 246 247 243 235 229 226 224 223 228 237 238 229 223 224 227 229 231 229 227 226 228 230 231 233 236 239 242 247 252 255 259
238 238 239 238 236 239 244 244 242 245 250 257 265 270 270 270 269 269 270 270 270 269 269 270 271 269 269 272 274 273 272 270 268 266 263 257 251 246 241 236 229 222 220 221 223 225 226 226 229 233 236 238 241 241 238 241 246 244 234 223 220 221 222 222 224 224 218 209 205 208 213 216 217 218 222 226 231 236 239 242 244 246 248 250 253 257
237 238 239 238 238 242 246 248 248 250 254 258 263 269 272 272 271 271 274 276 278 278 278 277 275 272 270 271 273 273 270 266 264 261 257 256 254 249 243 239 234 226 221 220 221 223 222 221 222 226 229 231 235 242 246 246 248 247 235 223 220 221 222 222 219 217 216 213 210 210 214 219 223 229 235 240 243 245 246 246 247 248 248 249 251 254
236 237 239 240 242 245 249 252 252 252 255 260 265 268 269 270 272 276 278 278 279 281 283 284 282 278 274 270 270 271 268 263 260 258 256 256 256 253 247 243 239 233 226 221 220 222 222 221 221 222 224 225 229 239 243 235 235 239 232 216 202 196 198 213 216 215 216 218 221 224 226 228 231 234 238 240 241 241 242 244 244 244 244 244 245 247
236 236 238 240 243 246 248 251 252 253 256 262 265 264 261 263 270 277 280 281 281 282 285 288 287 284 279 271 267 268 266 262 259 256 254 254 254 253 249 245 242 239 233 226 222 222 222 222 222 221 220 221 224 232 231 222 222 228 223 196 158 150 162 159 161 172 184 195 203 208 211 213 215 218 220 223 225 226 228 231 231 232 233 234 236 237
Height
5875 5876 5878 5879 5880 5881 5882 5881 5882 5883 5883 5885 5887 5888 5889 5890 5891 5891 5892 5892 5893 5893 5894 5894 5894 5895 5896 5896 5897 5897 5898 5899 5899 5900 5901 5901 5902 5902 5903 5903 5904 5905 5906 5906 5908 5909 5909 5910 5910 5910 5910 5911 5911 5912 5912 5912 5913 5913 5913 5914 5915 5917 5918 5919 5920 5921 5922 5922 5923 5923 5924 5924 5925 5926 5926 5926 5927 5927 5927 5928 5928 5929 5929 5929 5930 5929
5874 5876 5877 5878 5879 5880 5880 5880 5880 5881 5882 5884 5885 5886 5888 5889 5889 5890 5891 5892 5892 5893 5894 5894 5894 5895 5895 5896 5896 5897 5897 5898 5898 5899 5900 5901 5902 5902 5903 5903 5904 5905 5906 5906 5907 5908 5909 5910 5910 5910 5911 5911 5912 5912 5913 5913 5913 5914 5914 5914 5915 5916 5917 5918 5919 5921 5922 5923 5923 5924 5924 5925 5926 5926 5927 5927 5927 5927 5927 5928 5929 5929 5929 5930 5930 5930
5874 5875 5876 5877 5878 5879 5879 5879 5879 5880 5881 5882 5884 5885 5887 5888 5889 5889 5890 5891 5891 5892 5893 5894 5894 5894 5895 5895 5896 5896 5897 5897 5898 5898 5898 5899 5901 5902 5902 5903 5904 5904 5905 5906 5907 5908 5909 5910 5910 5910 5911 5911 5912 5913 5913 5914 5914 5914 5915 5915 5915 5916 5917 5918 5919 5920 5922 5923 5924 5924 5925 5925 5926 5926 5926 5927 5927 5927 5927 5928 5929 5929 5930 5930 5930 5930
5874 5874 5875 5876 5878 5879 5879 5880 5880 5880 5881 5882 5884 5885 5887 5888 5888 5889 5889 5889 5890 5891 5892 5893 5893 5893 5894 5895 5895 5896 5896 5896 5897 5898 5898 5898 5900 5901 5902 5903 5904 5904 5905 5906 5907 5908 5909 5909 5909 5910 5911 5911 5912 5912 5913 5914 5914 5915 5915 5915 5915 5916 5917 5918 5920 5921 5922 5923 5924 5925 5925 5925 5926 5926 5926 5926 5927 5927 5928 5928 5929 5930 5930 5930 5930 5931
5874 5874 5875 5877 5878 5878 5879 5879 5880 5880 5881 5883 5884 5885 5886 5886 5886 5887 5887 5888 5888 5890 5891 5892 5892 5892 5893 5894 5895 5895 5895 5895 5896 5897 5898 5898 5899 5900 5901 5902 5903 5904 5904 5905 5906 5907 5908 5908 5909 5910 5910 5911 5911 5912 5913 5914 5914 5915 5915 5915 5916 5916 5917 5918 5920 5921 5922 5922 5923 5924 5924 5925 5925 5926 5926 5926 5927 5927 5928 5928 5929 5930 5930 5930 5931 5931
5874 5875 5876 5877 5877 5877 5877 5878 5878 5880 5881 5883 5884 5884 5883 5883 5883 5883 5884 5885 5886 5887 5889 5891 5891 5891 5892 5893 5894 5894 5894 5895 5896 5897 5897 5897 5897 5898 5900 5901 5902 5903 5904 5904 5906 5906 5907 5908 5909 5909 5910 5910 5911 5912 5912 5913 5914 5915 5915 5915 5915 5916 5917 5918 5919 5920 5921 5922 5922 5923 5923 5924 5924 5925 5925 5926 5926 5927 5928 5928 5929 5930 5930 5931 5931 5931
5872 5874 5874 5875 5875 5876 5877 5877 5878 5879 5880 5882 5883 5881 5881 5881 5881 5882 5882 5883 5884 5885 5887 5889 5890 5890 5891 5892 5893 5894 5893 5894 5895 5896 5896 5896 5897 5897 5898 5900 5901 5902 5903 5903 5905 5906 5906 5907 5908 5909 5910 5910 5911 5911 5912 5913 5913 5914 5915 5915 5915 5916 5916 5917 5918 5919 5920 5921 5922 5922 5923 5923 5924 5924 5925 5925 5926 5927 5927 5928 5929 5929 5930 5930 5931 5931
5871 5872 5873 5874 5874 5874 5875 5876 5877 5878 5879 5881 5881 5880 5880 5881 5880 5880 5881 5881 5882 5884 5886 5888 5889 5890 5890 5891 5892 5893 5893 5893 5894 5894 5895 5895 5895 5896 5897 5898 5899 5901 5902 5903 5904 5905 5905 5906 5907 5908 5909 5910 5910 5911 5911 5912 5913 5914 5914 5915 5915 5915 5916 5917 5918 5919 5919 5920 5921 5922 5922 5923 5923 5924 5924 5925 5925 5926 5927 5928 5928 5929 5929 5930 5931 5931
5870 5872 5873 5873 5874 5873 5874 5875 5876 5877 5878 5878 5879 5878 5879 5879 5879 5879 5879 5880 5881 5883 5885 5886 5887 5888 5889 5889 5890 5892 5892 5892 5892 5893 5893 5893 5894 5895 5895 5896 5897 5899 5900 5901 5902 5904 5904 5905 5906 5907 5908 5909 5910 5910 5911 5912 5913 5914 5914 5915 5915 5915 5916 5916 5917 5918 5919 5920 5920 5921 5922 5922 5923 5923 5924 5924 5925 5925 5926 5927 5928 5928 5929 5930 5931 5931
5871 5872 5872 5873 5873 5873 5873 5874 5876 5877 5877 5877 5877 5878 5878 5878 5878 5878 5878 5879 5879 5881 5882 5883 5884 5885 5887 5888 5889 5890 5890 5890 5891 5891 5892 5892 5892 5893 5894 5895 5896 5897 5899 5900 5901 5902 5903 5904 5905 5906 5908 5909 5909 5910 5910 5911 5912 5913 5914 5915 5915 5915 5915 5916 5917 5918 5919 5919 5920 5920 5921 5922 5922 5923 5924 5924 5924 5925 5926 5927 5927 5928 5929 5930 5930 5931
5871 5872 5871 5872 5873 5873 5873 5874 5875 5876 5876 5876 5877 5877 5877 5878 5878 5877 5878 5877 5877 5879 5881 5881 5881 5883 5885 5886 5887 5888 5889 5889 5890 5890 5890 5891 5891 5891 5892 5893 5894 5895 5896 5898 5900 5901 5902 5903 5904 5905 5907 5908 5909 5910 5910 5911 5912 5913 5914 5914 5915 5915 5915 5916 5917 5918 5919 5919 5920 5920 5921 5922 5922 5923 5924 5924 5924 5925 5926 5926 5927 5928 5928 5929 5930 5931
5871 5871 5871 5871 5872 5873 5873 5873 5874 5875 5875 5876 5876 5876 5878 5879 5879 5878 5878 5877 5876 5879 5880 5879 5879 5880 5882 5883 5884 5885 5887 5888 5889 5889 5889 5889 5889 5890 5891 5892 5893 5893 5894 5896 5898 5900 5901 5902 5903 5904 5906 5907 5908 5909 5909 5910 5911 5912 5913 5914 5915 5915 5915 5916 5916 5917 5919 5919 5920 5921 5921 5922 5923 5923 5924 5924 5925 5926 5926 5926 5927 5927 5928 5929 5930 5931
5870 5870 5870 5871 5871 5871 5871 5871 5873 5873 5873 5874 5874 5875 5876 5877 5877 5878 5877 5876 5876 5878 5879 5878 5877 5877 5879 5880 5882 5883 5885 5886 5886 5886 5886 5887 5887 5888 5889 5890 5891 5892 5892 5894 5896 5898 5900 5901 5902 5903 5904 5906 5907 5908 5908 5909 5910 5912 5913 5914 5914 5915 5915 5916 5916 5917 5918 5919 5920 5921 5921 5922 5923 5924 5924 5925 5925 5926 5926 5927 5927 5928 5929 5929 5930 5931
5869 5869 5869 5869 5869 5870 5870 5871 5872 5872 5872 5872 5872 5872 5873 5874 5874 5875 5875 5875 5875 5875 5876 5875 5875 5875 5876 5878 5879 5881 5882 5883 5884 5884 5884 5885 5885 5886 5887 5888 5890 5891 5891 5892 5893 5896 5898 5900 5901 5902 5903 5904 5906 5907 5907 5908 5910 5911 5912 5913 5914 5914 5915 5915 5916 5917 5918 5919 5920 5921 5921 5922 5923 5924 5925 5926 5926 5926 5927 5928 5928 5929 5929 5930 5930 5931
5868 5868 5868 5868 5868 5869 5869 5869 5871 5871 5870 5870 5870 5870 5871 5871 5872 5873 5873 5872 5872 5873 5873 5873 5873 5874 5874 5875 5876 5878 5879 5880 5882 5882 5882 5883 5884 5884 5885 5886 5888 5890 5891 5890 5891 5893 5895 5897 5899 5900 5902 5903 5904 5906 5906 5907 5909 5910 5911 5912 5913 5914 5914 5915 5916 5917 5917 5918 5919 5920 5921 5922 5923 5924 5925 5926 5926 5927 5928 5928 5929 5929 5930 5930 5931 5931
5867 5866 5866 5867 5868 5868 5867 5868 5869 5869 5869 5868 5868 5869 5869 5869 5870 5871 5871 5871 5871 5871 5871 5871 5871 5871 5872 5873 5874 5876 5877 5878 5879 5880 5880 5881 5882 5883 5884 5885 5886 5888 5889 5889 5889 5891 5893 5895 5897 5899 5900 5902 5903 5904 5905 5906 5907 5909 5910 5911 5912 5913 5914 5915 5915 5916 5917 5918 5919 5920 5921 5922 5923 5924 5925 5926 5926 5927 5928 5928 5929 5930 5930 5931 5931 5931
5866 5866 5865 5865 5867 5867 5867 5867 5867 5868 5868 5867 5867 5867 5867 5868 5869 5869 5870 5869 5869 5869 5869 5869 5869 5869 5871 5872 5872 5873 5874 5875 5876 5877 5878 5879 5880 5881 5882 5883 5883 5884 5887 5888 5888 5890 5891 5893 5895 5897 5899 5901 5902 5903 5904 5904 5906 5907 5908 5910 5911 5912 5913 5914 5915 5916 5917 5918 5919 5919 5920 5921 5922 5923 5925 5925 5926 5927 5927 5928 5929 5929 5930 5930 5931 5931
5866 5866 5865 5865 5865 5865 5865 5865 5865 5866 5867 5867 5866 5865 5865 5866 5867 5868 5868 5868 5868 5868 5867 5866 5867 5868 5869 5870 5870 5870 5871 5872 5873 5874 5875 5876 5877 5878 5879 5880 5881 5881 5883 5885 5886 5888 5890 5892 5893 5895 5898 5899 5900 5901 5902 5903 5904 5906 5907 5908 5910 5911 5912 5913 5914 5915 5916 5917 5918 5919 5920 5921 5922 5923 5924 5925 5926 5926 5927 5928 5928 5929 5929 5930 5931 5931
5866 5866 5864 5864 5865 5864 5863 5864 5864 5864 5864 5865 5865 5864 5864 5864 5865 5865 5866 5866 5866 5866 5865 5864 5864 5865 5866 5867 5868 5868 5869 5869 5870 5870 5871 5872 5873 5874 5875 5877 5878 5879 5880 5882 5884 5886 5887 5889 5891 5893 5896 5897 5898 5900 5901 5901 5903 5905 5906 5907 5908 5909 5910 5912 5913 5914 5915 5916 5918 5918 5919 5920 5921 5922 5923 5924 5925 5926 5927 5927 5928 5928 5929 5930 5930 5931
5865 5864 5864 5863 5863 5862 5861 5862 5862 5861 5861 5863 5863 5863 5863 5862 5862 5863 5863 5864 5864 5864 5863 5862 5862 5862 5863 5865 5866 5867 5868 5868 5869 5870 5870 5871 5871 5870 5871 5872 5874 5875 5878 5880 5882 5884 5885 5886 5888 5890 5893 5895 5897 5898 5899 5900 5901 5903 5904 5905 5906 5908 5909 5911 5912 5913 5914 5915 5916 5918 5919 5920 5920 5921 5922 5923 5924 5925 5926 5927 5928 5928 5929 5929 5930 5930
5863 5864 5863 5862 5861 5861 5860 5859 5859 5858 5859 5860 5861 5862 5862 5860 5860 5860 5861 5861 5861 5861 5861 5861 5860 5860 5861 5863 5866 5866 5866 5867 5868 5869 5870 5871 5871 5870 5869 5869 5870 5872 5875 5877 5879 5880 5882 5884 5886 5888 5890 5893 5895 5896 5898 5898 5899 5901 5903 5904 5905 5906 5908 5909 5910 5911 5913 5914 5915 5916 5917 5918 5919 5920 5921 5922 5923 5924 5925 5926 5927 5928 5928 5929 5929 5930
5863 5864 5863 5861 5860 5860 5859 5857 5857 5857 5857 5858 5859 5859 5859 5858 5858 5859 5859 5859 5859 5859 5859 5858 5859 5859 5860 5862 5864 5864 5864 5865 5865 5866 5867 5869 5871 5871 5870 5869 5869 5870 5871 5873 5875 5877 5879 5881 5883 5885 5887 5889 5892 5895 5896 5897 5898 5899 5901 5902 5903 5905 5906 5908 5909 5910 5911 5912 5913 5915 5916 5917 5918 5919 5920 5921 5922 5923 5924 5925 5926 5927 5928 5928 5929 5929
5861 5862 5863 5862 5860 5859 5857 5855 5855 5855 5855 5857 5857 5857 5857 5856 5856 5857 5857 5857 5857 5856 5856 5856 5857 5858 5859 5860 5861 5862 5862 5863 5863 5863 5863 5865 5868 5869 5869 5869 5869 5869 5869 5870 5871 5874 5876 5878 5880 5882 5883 5886 5889 5892 5894 5896 5896 5897 5899 5900 5902 5903 5904 5906 5907 5908 5909 5910 5912 5913 5915 5916 5917 5918 5919 5920 5921 5922 5923 5924 5925 5926 5927 5927 5928 5929
5858 5859 5860 5860 5860 5859 5857 5853 5853 5854 5854 5855 5856 5855 5854 5854 5855 5855 5856 5855 5855 5855 5854 5854 5855 5856 5857 5857 5858 5859 5860 5860 5860 5860 5860 5861 5863 5865 5867 5867 5868 5868 5868 5869 5870 5870 5873 5875 5877 5879 5881 5883 5885 5888 5892 5894 5895 5895 5897 5898 5900 5901 5903 5904 5905 5907 5908 5909 5910 5911 5913 5914 5916 5917 5918 5918 5919 5920 5921 5923 5924 5925 5926 5926 5927 5927
5855 5855 5856 5857 5857 5857 5855 5852 5852 5852 5852 5852 5853 5853 5851 5851 5853 5853 5854 5853 5853 5853 5853 5853 5853 5854 5854 5854 5855 5856 5857 5858 5858 5858 5858 5859 5861 5862 5864 5864 5865 5866 5866 5868 5868 5868 5869 5872 5873 5876 5879 5880 5882 5884 5888 5891 5893 5894 5895 5896 5898 5899 5901 5902 5904 5905 5906 5907 5908 5910 5911 5913 5914 5915 5916 5917 5918 5919 5920 5921 5922 5923 5924 5925 5926 5926
5852 5852 5853 5854 5855 5854 5853 5851 5850 5850 5849 5849 5850 5851 5849 5849 5851 5851 5851 5851 5850 5850 5850 5850 5851 5851 5851 5852 5852 5854 5855 5855 5856 5856 5856 5857 5859 5860 5861 5861 5862 5862 5863 5864 5866 5866 5867 5868 5870 5872 5875 5877 5879 5881 5885 5888 5890 5891 5892 5894 5896 5897 5899 5901 5902 5903 5904 5906 5907 5908 5909 5911 5912 5913 5914 5915 5916 5917 5918 5920 5921 5922 5923 5923 5924 5925
5849 5849 5849 5850 5852 5852 5852 5850 5848 5847 5848 5847 5847 5848 5847 5847 5848 5849 5849 5849 5848 5848 5848 5848 5848 5849 5849 5849 5850 5851 5852 5853 5854 5854 5854 5855 5856 5857 5858 5859 5859 5860 5860 5861 5862 5863 5865 5867 5867 5867 5870 5873 5875 5878 5881 5884 5887 5889 5891 5892 5894 5895 5896 5898 5900 5901 5903 5904 5905 5906 5907 5909 5910 5911 5912 5913 5914 5916 5917 5918 5919 5920 5921 5922 5923 5923
5846 5846 5846 5847 5848 5848 5848 5847 5846 5846 5846 5846 5846 5846 5845 5845 5845 5846 5846 5846 5846 5846 5846 5846 5846 5847 5847 5847 5848 5849 5850 5851 5851 5852 5852 5853 5854 5854 5856 5857 5858 5858 5858 5858 5858 5859 5861 5864 5865 5866 5867 5870 5872 5874 5877 5880 5883 5887 5889 5890 5892 5893 5895 5896 5898 5899 5900 5902 5903 5904 5905 5906 5907 5909 5910 5911 5913 5914 5915 5916 5917 5918 5919 5920 5921 5921
5843 5842 5843 5844 5844 5844 5844 5845 5845 5845 5844 5845 5845 5844 5843 5843 5843 5842 5842 5842 5843 5844 5844 5843 5844 5845 5845 5845 5846 5847 5847 5848 5849 5850 5850 5850 5851 5852 5854 5855 5856 5856 5856 5856 5857 5857 5858 5860 5862 5864 5866 5867 5868 5871 5873 5876 5879 5882 5885 5887 5889 5891 5892 5894 5895 5896 5898 5899 5901 5902 5903 5904 5905 5906 5908 5910 5912 5913 5913 5914 5914 5915 5916 5917 5918 5919
5840 5840 5840 5841 5841 5841 5842 5843 5843 5843 5843 5843 5843 5842 5842 5841 5841 5840 5840 5839 5840 5841 5841 5842 5842 5843 5843 5843 5843 5844 5844 5845 5846 5847 5848 5848 5849 5850 5852 5853 5853 5853 5853 5853 5855 5855 5856 5857 5858 5860 5863 5864 5866 5868 5870 5872 5875 5878 5881 5883 5885 5887 5888 5890 5892 5893 5894 5896 5898 5899 5900 5901 5903 5904 5906 5907 5908 5909 5910 5911 5911 5912 5913 5915 5916 5916
5837 5836 5837 5838 5838 5838 5838 5839 5840 5840 5839 5839 5840 5839 5839 5839 5838 5838 5837 5836 5838 5839 5839 5840 5840 5841 5841 5841 5841 5842 5842 5843 5844 5845 5846 5846 5847 5848 5849 5851 5851 5851 5851 5851 5852 5853 5854 5855 5856 5857 5860 5862 5864 5866 5868 5870 5871 5873 5876 5879 5881 5882 5883 5885 5888 5889 5891 5893 5895 5897 5898 5900 5901 5902 5903 5903 5904 5905 5906 5907 5908 5910 5911 5913 5914 5915
5833 5833 5834 5835 5835 5835 5835 5835 5836 5835 5835 5836 5837 5837 5837 5837 5836 5835 5834 5834 5835 5836 5837 5837 5838 5839 5839 5840 5840 5840 5840 5841 5842 5843 5844 5844 5844 5845 5847 5849 5849 5849 5849 5849 5850 5851 5852 5854 5855 5856 5857 5859 5861 5863 5865 5867 5869 5870 5872 5874 5876 5878 5880 5882 5885 5887 5889 5891 5893 5895 5896 5897 5898 5898 5898 5899 5899 5901 5902 5904 5906 5908 5910 5911 5912 5913
5830 5830 5831 5831 5832 5832 5832 5832 5832 5832 5833 5834 5835 5834 5835 5834 5832 5832 5832 5832 5833 5834 5834 5835 5835 5835 5837 5837 5838 5837 5838 5839 5840 5840 5841 5841 5842 5843 5845 5847 5847 5848 5848 5849 5849 5850 5851 5852 5854 5855 5855 5856 5858 5859 5861 5863 5865 5867 5869 5870 5872 5873 5875 5878 5881 5885 5887 5888 5889 5891 5892 5893 5894 5894 5894 5895 5896 5898 5900 5902 5904 5906 5908 5908 5909 5911
5827 5828 5828 5829 5829 5829 5830 5830 5830 5830 5831 5832 5832 5831 5831 5830 5830 5830 5830 5831 5831 5832 5833 5832 5832 5833 5834 5834 5834 5835 5835 5836 5837 5838 5838 5839 5839 5841 5843 5845 5845 5846 5847 5848 5848 5848 5849 5850 5851 5852 5853 5854 5855 5856 5857 5859 5861 5863 5864 5866 5868 5869 5870 5873 5877 5881 5883 5884 5886 5887 5888 5888 5889 5890 5892 5893 5894 5895 5897 5899 5901 5903 5904 5905 5906 5908
5825 5826 5825 5826 5826 5827 5827 5827 5827 5828 5828 5829 5829 5828 5826 5826 5828 5829 5829 5829 5830 5830 5830 5830 5830 5831 5831 5832 5832 5832 5833 5834 5835 5835 5835 5836 5837 5838 5840 5842 5843 5843 5844 5845 5845 5846 5847 5847 5848 5849 5850 5851 5852 5853 5854 5856 5857 5858 5860 5862 5864 5865 5866 5869 5872 5876 5879 5881 5882 5882 5884 5884 5885 5887 5889 5890 5891 5892 5893 5895 5897 5900 5902 5903 5903 5904
5823 5823 5823 5823 5824 5824 5824 5825 5825 5825 5825 5826 5827 5825 5824 5824 5826 5828 5828 5828 5828 5828 5828 5828 5828 5829 5830 5830 5830 5830 5830 5831 5832 5832 5832 5834 5835 5836 5837 5838 5840 5840 5841 5842 5842 5842 5843 5845 5845 5846 5846 5847 5848 5849 5851 5852 5853 5854 5855 5857 5859 5861 5863 5865 5868 5871 5874 5876 5877 5879 5880 5882 5882 5884 5885 5886 5888 5889 5891 5892 5894 5896 5899 5899 5900 5900
5821 5821 5820 5821 5821 5821 5821 5822 5822 5823 5823 5822 5823 5823 5822 5822 5824 5825 5826 5826 5826 5826 5826 5826 5826 5827 5827 5828 5827 5827 5827 5828 5828 5828 5829 5830 5832 5833 5834 5835 5836 5837 5837 5838 5838 5839 5840 5842 5843 5843 5843 5843 5843 5845 5846 5848 5849 5850 5851 5852 5854 5856 5859 5862 5864 5867 5869 5871 5872 5874 5876 5878 5880 5881 5882 5883 5884 5886 5888 5889 5890 5893 5895 5896 5896 5897
5818 5817 5818 5818 5818 5817 5818 5819 5819 5820 5819 5819 5819 5819 5819 5820 5820 5821 5823 5824 5825 5825 5825 5825 5825 5825 5825 5825 5825 5825 5825 5825 5824 5824 5825 5826 5827 5829 5830 5831 5832 5833 5834 5834 5835 5836 5837 5839 5840 5839 5839 5839 5839 5840 5842 5844 5845 5846 5847 5849 5850 5852 5854 5857 5860 5863 5864 5865 5867 5869 5870 5873 5876 5878 5879 5880 5881 5883 5885 5886 5887 5889 5891 5892 5893 5892
5814 5814 5815 5815 5814 5813 5815 5816 5817 5817 5816 5815 5816 5816 5817 5817 5817 5818 5820 5822 5823 5823 5823 5823 5823 5822 5822 5821 5821 5821 5821 5822 5821 5821 5821 5823 5824 5825 5826 5827 5829 5830 5831 5832 5832 5833 5834 5835 5836 5835 5835 5835 5835 5836 5838 5840 5841 5843 5845 5846 5847 5847 5849 5852 5855 5857 5858 5859 5862 5864 5865 5867 5871 5873 5875 5876 5877 5878 5879 5881 5884 5885 5885 5886 5888 5888
5811 5811 5811 5812 5811 5811 5812 5814 5814 5814 5813 5812 5813 5814 5814 5814 5815 5816 5818 5819 5820 5821 5820 5820 5820 5820 5819 5819 5818 5818 5818 5819 5818 5818 5818 5819 5820 5821 5822 5824 5825 5827 5828 5829 5829 5829 5830 5831 5831 5831 5831 5831 5831 5832 5834 5836 5837 5840 5842 5842 5843 5844 5846 5848 5850 5852 5853 5854 5857 5859 5860 5862 5866 5868 5870 5871 5873 5874 5875 5877 5879 5880 5880 5881 5883 5884
5807 5808 5808 5808 5808 5808 5809 5811 5811 5811 5810 5810 5811 5811 5811 5812 5813 5814 5815 5816 5818 5818 5817 5817 5817 5817 5817 5817 5816 5816 5816 5816 5815 5815 5815 5815 5816 5818 5819 5821 5822 5823 5824 5825 5825 5825 5826 5827 5827 5827 5827 5828 5828 5829 5831 5831 5830 5833 5837 5838 5838 5839 5840 5842 5844 5848 5850 5851 5852 5854 5856 5858 5861 5862 5865 5866 5867 5870 5872 5872 5872 5874 5876 5878 5878 5879
5804 5804 5805 5805 5806 5806 5807 5807 5808 5808 5808 5809 5809 5809 5809 5810 5810 5811 5813 5814 5815 5815 5814 5814 5814 5814 5814 5814 5814 5814 5813 5813 5813 5812 5812 5812 5813 5814 5816 5817 5819 5820 5820 5821 5821 5822 5823 5823 5824 5823 5823 5824 5824 5825 5827 5824 5821 5825 5832 5834 5833 5833 5834 5836 5839 5842 5844 5846 5846 5848 5851 5853 5856 5858 5859 5860 5863 5867 5868 5867 5868 5872 5874 5873 5873 5874
5801 5801 5801 5802 5803 5803 5803 5804 5805 5805 5805 5806 5807 5807 5807 5807 5808 5809 5811 5811 5811 5811 5811 5811 5811 5811 5812 5812 5812 5812 5811 5811 5810 5810 5809 5809 5810 5811 5812 5814 5816 5817 5818 5818 5818 5819 5819 5820 5820 5820 5820 5821 5822 5822 5823 5820 5817 5821 5828 5830 5829 5830 5831 5833 5835 5837 5838 5840 5841 5843 5846 5848 5850 5853 5854 5856 5859 5862 5863 5863 5866 5868 5868 5868 5869 5871
5796 5797 5798 5799 5800 5801 5801 5801 5802 5802 5802 5803 5805 5805 5805 5806 5806 5806 5807 5807 5807 5807 5807 5808 5808 5809 5809 5809 5810 5810 5809 5808 5808 5807 5807 5807 5807 5808 5808 5810 5812 5813 5814 5815 5815 5816 5817 5817 5817 5817 5818 5819 5820 5820 5820 5818 5817 5821 5825 5826 5828 5829 5830 5831 5832 5832 5833 5835 5837 5839 5840 5843 5846 5848 5850 5852 5853 5855 5858 5860 5862 5862 5863 5865 5866 5867
5792 5794 5795 5796 5796 5797 5798 5798 5798 5798 5799 5800 5802 5803 5803 5804 5803 5803 5804 5803 5803 5804 5804 5805 5806 5807 5807 5807 5807 5807 5807 5806 5806 5805 5805 5805 5805 5805 5805 5806 5808 5809 5811 5811 5812 5813 5814 5814 5814 5815 5816 5818 5819 5819 5818 5818 5819 5822 5824 5825 5827 5828 5828 5828 5827 5828 5829 5830 5832 5834 5836 5838 5841 5843 5846 5848 5849 5852 5855 5856 5855 5856 5858 5860 5861 5861
5788 5790 5791 5792 5792 5793 5794 5794 5795 5795 5795 5797 5799 5800 5801 5801 5801 5801 5802 5801 5801 5801 5802 5802 5803 5804 5804 5804 5804 5804 5804 5804 5803 5803 5803 5803 5803 5802 5802 5803 5804 5806 5807 5809 5810 5811 5811 5812 5812 5813 5814 5816 5817 5818 5818 5819 5819 5821 5822 5822 5823 5825 5826 5825 5824 5824 5825 5826 5828 5830 5832 5834 5837 5840 5843 5845 5846 5848 5849 5849 5850 5852 5853 5854 5856 5857
5784 5786 5787 5788 5789 5790 5790 5790 5791 5792 5792 5794 5795 5796 5797 5798 5798 5799 5799 5798 5798 5799 5800 5800 5801 5801 5802 5801 5801 5802 5801 5801 5801 5801 5801 5801 5800 5800 5800 5801 5802 5802 5804 5806 5807 5808 5809 5810 5810 5812 5813 5814 5814 5815 5817 5817 5817 5818 5819 5820 5820 5821 5822 5823 5822 5822 5822 5823 5825 5827 5829 5831 5834 5836 5838 5839 5841 5842 5844 5845 5846 5848 5849 5850 5852 5853
5781 5783 5784 5785 5786 5786 5785 5785 5787 5789 5790 5791 5793 5793 5794 5795 5795 5795 5796 5795 5795 5796 5797 5798 5798 5798 5799 5799 5799 5799 5799 5799 5799 5799 5799 5798 5798 5798 5798 5799 5799 5800 5801 5802 5804 5805 5806 5808 5809 5810 5811 5812 5812 5813 5814 5815 5815 5815 5816 5817 5817 5818 5819 5820 5821 5820 5820 5821 5823 5824 5826 5828 5830 5831 5833 5835 5837 5839 5840 5841 5842 5843 5845 5847 5848 5848
5777 5779 5780 5781 5782 5782 5781 5782 5785 5787 5788 5789 5790 5791 5791 5791 5792 5793 5794 5793 5793 5793 5794 5795 5795 5795 5796 5796 5796 5796 5796 5796 5796 5797 5796 5796 5795 5796 5796 5797 5797 5798 5799 5800 5801 5802 5804 5806 5807 5809 5809 5810 5810 5811 5812 5813 5813 5813 5813 5814 5814 5815 5815 5816 5817 5818 5818 5820 5821 5822 5824 5826 5827 5828 5830 5832 5833 5835 5836 5838 5839 5840 5841 5842 5844 5845
5775 5775 5776 5778 5779 5779 5780 5782 5783 5784 5785 5786 5787 5788 5788 5788 5789 5790 5791 5791 5791 5791 5791 5792 5792 5792 5793 5793 5793 5793 5793 5793 5794 5794 5794 5793 5793 5793 5794 5794 5795 5796 5797 5797 5798 5799 5801 5803 5804 5806 5807 5808 5808 5809 5810 5812 5811 5810 5810 5811 5811 5811 5812 5812 5813 5814 5816 5818 5819 5820 5822 5823 5824 5826 5827 5829 5830 5832 5833 5834 5835 5836 5837 5838 5839 5840
5771 5771 5772 5774 5776 5777 5778 5779 5780 5782 5782 5782 5783 5785 5785 5786 5786 5787 5788 5789 5789 5788 5789 5789 5789 5789 5790 5790 5790 5791 5791 5791 5791 5791 5791 5790 5790 5791 5791 5792 5793 5794 5795 5795 5796 5797 5798 5799 5801 5803 5804 5805 5806 5808 5809 5810 5809 5808 5809 5809 5809 5810 5811 5812 5812 5813 5815 5816 5818 5819 5821 5822 5823 5824 5825 5827 5828 5830 5831 5832 5833 5834 5834 5835 5836 5837